Regional Weather Roundup
Issued by NWS

Home | Current Version | Previous Version | Text Only | Print | Product List | Glossary Off
Versions: 1 2 3 4 5 6 7 8 9 10 11 12 13 14 15 16 17 18 19 20 21 22 23 24 25 26 27 28 29 30 31 32 33 34 35 36 37 38 39 40 41 42 43 44 45 46 47 48 49 50

000
ASUS43 KLMK 240010
RWRKY
KENTUCKY REGIONAL WEATHER ROUNDUP
NATIONAL WEATHER SERVICE LOUISVILLE KY
800 PM EDT WED MAY 23 2018

NOTE "FAIR" INDICATES FEW OR NO CLOUDS BELOW 12,000 FEET
WITH NO SIGNIFICANT WEATHER AND/OR OBSTRUCTIONS TO VISIBILITY.

KYZ001>023-026-027-061>063-070>075-240100-
WESTERN AND SOUTH CENTRAL KENTUCKY

CITY           SKY/WX    TMP DP  RH WIND       PRES   REMARKS
PADUCAH        FAIR      83  64  52 NE5       30.06S
HENDERSON      NOT AVBL
OWENSBORO      FAIR      83  62  49 NE6       30.08R
HOPKINSVILLE   FAIR      81  67  61 N6        30.06S
BOWLING GREEN  FAIR      83  64  52 CALM      30.06F
GLASGOW        FAIR      81  62  52 NE3       30.08R
$$

KYZ024-025-028>034-038-045-046-053-240100-
NORTH CENTRAL KENTUCKY

CITY           SKY/WX    TMP DP  RH WIND       PRES   REMARKS
LOUISVILLE/SDF MOCLDY    82  57  42 VRB7      30.08S
LOUISVILLE/LOU FAIR      80  60  50 E10       30.09R
FORT KNOX      FAIR      80  62  54 N5        30.09S
$$

KYZ035>037-039>044-047>052-055>060-089>105-240100-
NORTHEAST KENTUCKY

CITY           SKY/WX    TMP DP  RH WIND       PRES   REMARKS
LEXINGTON      FAIR      76  59  55 NE8       30.11S
COVINGTON      FAIR      77  55  46 E9        30.12R
FRANKFORT      FAIR      79  58  48 NE8       30.10R
$$

KYZ054-064>069-076>088-106>120-240100-
SOUTHEAST KENTUCKY

CITY           SKY/WX    TMP DP  RH WIND       PRES   REMARKS
JACKSON        FAIR      75  64  68 CALM      30.11R
LONDON         FAIR      79  63  57 NE7       30.09S
SOMERSET       FAIR      77  63  61 MISG      30.09S
MIDDLESBORO    FAIR      79  62  56 CALM      30.09R
MONTICELLO     FAIR      79  66  64 N13       30.10R
$$





USA.gov is the U.S. government's official web portal to all federal, state and local government web resources and services.